Wind_Speed
26 25 26 27 27 28 28 29 29 28 26 24 25 26 24 25 25 23 22 23 23 24 24 24 24 24 24 24 23 23 22 22 21 21 20 20 19 19 19 18 18 18 18 18
24 25 25 26 26 27 27 28 27 28 27 25 25 25 24 24 25 25 23 23 23 23 23 23 23 23 23 24 24 23 22 22 22 21 21 21 20 19 20 20 20 21 21 20
23 24 25 25 25 26 26 26 27 26 25 25 25 23 23 24 23 24 24 23 22 23 23 23 24 24 24 24 24 23 23 23 22 22 22 22 20 20 19 20 21 21 21 21
23 23 25 24 24 26 26 26 26 25 25 25 25 24 25 24 23 23 23 23 23 24 24 25 25 26 26 25 24 24 24 24 24 24 23 23 23 21 20 21 21 21 21 21
23 23 24 23 24 26 26 26 26 26 26 25 25 25 25 24 24 24 23 23 23 23 24 25 25 25 26 26 25 25 25 24 23 23 22 22 24 23 22 23 23 22 22 22
23 24 24 21 23 25 25 26 26 26 26 25 25 26 26 24 23 24 24 23 24 24 23 23 24 25 26 26 25 25 25 25 24 24 24 23 24 26 25 25 24 23 23 23
23 23 22 21 21 23 25 25 25 26 25 25 25 26 25 25 25 24 24 24 24 24 25 25 25 24 24 25 24 24 24 24 25 26 25 25 25 26 26 26 25 25 25 25
23 23 22 22 22 22 24 24 24 25 25 25 25 27 27 26 24 25 25 24 24 25 25 25 25 24 24 24 24 25 26 25 25 26 26 26 26 26 27 27 26 26 25 26
21 21 21 22 22 22 23 24 24 24 24 25 25 26 26 26 25 26 25 24 24 25 25 24 24 24 25 26 26 26 27 26 26 26 25 26 27 26 27 27 26 26 26 26
20 20 20 21 22 22 22 22 22 22 24 25 25 25 26 25 24 24 24 25 25 25 25 25 24 24 25 26 27 28 28 27 27 27 27 27 27 27 27 26 26 26 26 26
19 19 20 19 21 22 23 23 24 23 24 25 26 26 26 26 25 24 24 25 25 25 25 25 25 25 25 26 27 28 28 28 28 28 29 29 28 27 26 26 27 27 27 26
19 19 19 19 19 21 22 23 24 25 24 24 25 26 25 23 23 24 26 26 25 26 26 26 26 26 26 26 27 26 26 27 28 28 29 28 27 27 27 26 27 27 27 27
20 20 20 19 19 19 20 21 23 24 24 24 23 24 25 25 24 25 25 25 25 26 26 25 25 26 26 26 26 26 26 26 26 26 27 27 27 27 27 27 27 27 28 28
21 21 21 20 20 20 20 21 22 23 23 23 23 23 24 24 25 25 25 25 25 25 25 25 25 25 25 25 24 24 25 25 24 24 25 26 27 27 28 28 28 28 29 29
20 21 21 20 20 20 19 20 21 21 22 22 22 22 23 23 24 24 24 24 24 24 24 24 24 24 24 24 25 25 25 25 25 25 26 26 26 27 28 28 29 30 30 30
19 19 19 19 19 19 20 20 20 20 21 21 21 21 21 22 23 23 24 24 23 24 24 24 24 24 24 24 24 24 24 24 25 25 26 26 26 26 27 28 29 30 30 30
18 18 18 18 18 18 19 19 19 20 20 20 19 20 20 21 21 21 22 22 23 23 23 24 24 24 24 24 23 23 23 24 24 25 25 25 25 26 27 28 29 29 30 30
17 17 17 18 18 18 18 18 19 19 19 19 20 20 21 20 20 21 22 22 22 22 22 22 23 23 23 23 23 23 23 24 24 25 25 25 25 26 27 27 28 28 29 29
17 17 17 18 18 18 18 19 19 19 19 19 20 19 18 19 19 20 20 21 21 20 20 21 21 21 22 22 23 23 23 24 24 25 25 26 27 27 27 28 27 27 27 27
16 16 17 18 18 18 18 19 19 19 19 20 20 20 19 19 19 19 20 20 21 21 22 22 22 21 22 23 23 23 24 24 24 25 24 25 25 26 25 26 27 28 28 28
15 15 16 17 17 17 17 16 16 17 17 18 19 20 20 20 20 20 20 20 21 22 22 22 23 23 23 23 23 23 24 24 25 24 24 24 25 25 25 25 26 26 27 27
14 14 14 15 16 16 16 16 16 17 17 17 18 18 19 19 20 20 20 20 20 21 22 22 22 22 23 22 22 23 23 23 23 23 23 23 23 24 24 24 24 24 24 25
14 14 14 14 15 15 15 16 16 17 17 17 17 17 17 18 18 19 19 20 20 21 22 22 22 22 22 22 22 22 22 22 22 22 22 22 22 22 23 24 24 24 24 24
13 13 14 14 14 14 14 14 14 15 16 15 15 15 16 16 17 17 18 18 19 20 20 20 21 21 21 21 21 20 20 20 21 22 22 22 22 23 23 24 23 23 23 23
12 12 12 13 13 14 14 14 14 14 15 15 14 15 16 16 16 16 17 18 18 19 19 20 20 20 20 20 20 20 20 20 20 21 21 21 22 22 22 23 23 22 23 23
12 12 12 13 13 14 14 15 15 14 14 14 15 15 15 14 15 16 16 16 17 17 17 18 19 19 19 19 19 19 19 19 19 20 19 19 19 20 20 21 20 20 20 20
13 13 12 12 12 12 13 13 13 13 13 14 14 14 14 14 14 15 15 16 16 16 16 16 17 17 17 17 17 16 16 16 16 17 17 18 18 19 19 19 19 19 19 19
Wind_Direction
248 245 245 245 245 245 248 250 251 253 255 255 252 254 257 259 258 258 259 263 265 262 260 261 264 265 265 263 263 265 262 262 264 264 265 266 264 263 266 268 271 275 278 280
252 249 247 246 246 248 251 252 254 255 255 256 257 255 253 256 256 256 258 262 263 261 260 262 265 265 265 263 264 265 265 266 263 266 264 267 263 263 265 266 269 274 276 276
251 250 248 247 248 250 250 252 254 254 254 254 254 253 251 252 253 255 258 259 261 263 260 261 263 265 264 264 264 265 265 265 266 266 265 262 264 267 265 266 269 272 273 274
255 252 249 249 249 250 249 251 251 252 252 250 249 251 251 251 251 254 257 261 263 262 261 261 262 265 265 263 264 264 264 265 266 265 265 263 263 266 265 265 268 270 270 272
257 255 255 252 250 251 251 251 250 250 250 251 249 252 253 253 256 257 261 263 266 267 263 261 260 264 265 264 265 264 263 265 263 265 267 267 264 263 265 266 267 269 272 272
259 259 258 254 248 249 252 253 252 252 253 253 252 254 255 255 257 260 262 264 266 268 267 263 262 264 263 261 263 263 264 265 265 265 266 269 267 264 266 266 264 266 269 271
259 260 260 255 250 250 251 252 252 253 253 255 256 256 257 258 259 260 261 264 266 269 269 265 262 260 260 258 260 262 264 267 267 267 266 269 269 267 266 266 266 268 269 270
258 259 260 257 255 254 252 251 252 252 253 256 258 259 260 260 260 263 264 267 269 271 270 268 263 259 259 259 260 262 264 267 269 268 268 268 268 268 267 267 268 268 271 272
261 265 265 261 259 258 257 254 252 253 253 255 258 263 263 264 265 265 269 271 271 273 271 269 266 264 264 263 262 262 264 266 268 267 267 269 268 269 270 269 270 269 270 271
264 266 265 262 260 257 257 256 254 255 255 255 258 262 266 267 267 268 269 272 271 273 271 269 266 265 265 265 264 264 265 265 265 265 266 268 268 268 268 269 269 270 271 272
266 268 268 265 260 256 255 256 258 259 259 258 257 260 263 267 267 269 272 273 273 271 271 270 266 266 267 267 266 264 263 263 263 263 265 266 266 267 268 268 269 270 271 272
268 271 270 266 265 258 256 256 258 259 261 262 260 260 262 263 266 269 269 270 271 273 273 272 270 270 271 269 266 266 265 264 265 266 266 265 266 266 266 268 269 271 272 273
270 271 270 266 266 263 259 258 260 263 265 267 264 262 263 264 266 268 268 269 270 271 272 272 272 271 271 270 267 266 267 268 268 267 266 266 267 266 267 269 269 269 271 273
271 272 271 269 267 266 265 264 264 263 264 265 264 264 265 266 267 268 268 268 269 269 270 270 271 271 272 272 271 269 269 269 268 269 269 268 268 267 267 268 268 270 271 273
272 272 271 270 269 270 267 266 265 263 264 265 265 265 267 268 267 267 267 267 267 268 268 269 269 270 271 271 272 272 271 270 268 269 271 271 269 269 269 269 269 271 272 273
273 274 273 271 270 270 267 266 265 264 265 265 266 267 268 268 268 268 268 269 269 269 269 269 269 270 271 271 272 271 271 270 268 269 271 270 270 270 270 271 271 272 272 273
275 278 275 273 271 271 268 267 267 267 267 268 269 270 270 269 268 268 269 268 269 270 270 270 268 268 269 269 270 270 270 271 271 270 272 273 270 270 272 272 271 271 272 272
275 278 278 274 272 272 268 268 268 268 267 269 271 270 269 269 268 268 268 268 270 271 271 270 269 268 269 271 271 271 270 271 272 272 273 273 274 274 274 273 272 272 272 272
271 274 277 274 273 272 269 269 269 268 267 268 268 270 270 267 268 268 267 269 270 271 270 270 270 270 271 273 273 273 272 272 272 272 273 274 274 274 273 273 274 274 274 274
269 273 276 275 274 274 272 270 269 268 268 268 268 269 272 272 271 270 270 270 270 270 271 271 271 272 273 274 274 274 273 272 272 273 272 273 275 276 276 276 275 274 273 270
270 273 275 275 273 274 273 271 270 270 273 272 271 270 273 275 275 273 273 272 272 272 272 273 272 272 274 276 276 275 274 272 273 274 274 275 277 278 278 278 277 276 273 271
271 273 275 274 272 274 273 274 277 279 278 276 275 274 274 275 276 274 275 276 276 275 274 273 273 273 274 276 276 276 274 272 272 273 275 276 277 278 277 277 278 276 274 274
273 275 275 276 276 274 275 278 279 279 279 279 277 275 275 277 278 278 278 279 279 278 276 274 273 273 274 275 275 275 272 271 273 275 277 278 279 278 278 277 278 277 277 277
277 278 277 279 279 276 279 281 280 279 280 280 278 277 278 281 280 281 282 282 283 281 278 276 275 275 275 275 273 273 274 273 275 277 279 279 279 278 279 279 280 280 280 279
275 277 279 279 279 279 280 283 283 283 283 282 281 281 282 284 284 284 286 286 284 281 278 278 277 276 275 274 272 273 275 275 275 278 281 281 281 281 280 280 281 282 282 280
273 276 280 283 284 283 284 285 285 283 285 286 285 285 286 288 289 289 289 289 288 284 282 282 281 277 275 274 273 274 275 275 275 278 281 284 287 287 284 282 283 283 282 280
276 279 282 284 286 286 286 288 286 284 287 290 289 288 289 291 293 294 294 293 290 288 288 288 287 283 277 277 276 274 275 277 279 282 284 286 288 289 289 288 286 284 283 280
Height
5797 5799 5799 5800 5802 5803 5804 5804 5805 5807 5809 5812 5812 5813 5813 5814 5814 5815 5815 5816 5817 5818 5819 5820 5820 5820 5821 5822 5822 5823 5823 5823 5823 5824 5824 5823 5823 5823 5824 5824 5825 5825 5824 5823
5791 5792 5792 5793 5795 5796 5797 5798 5799 5801 5803 5805 5806 5806 5807 5808 5808 5809 5809 5810 5811 5811 5812 5813 5813 5814 5814 5815 5816 5816 5816 5816 5815 5816 5817 5817 5816 5817 5818 5818 5819 5819 5819 5817
5784 5785 5785 5788 5789 5789 5790 5791 5792 5794 5797 5798 5799 5800 5801 5802 5802 5802 5803 5804 5804 5805 5805 5806 5806 5807 5807 5808 5808 5809 5810 5810 5809 5810 5811 5811 5811 5810 5811 5813 5813 5813 5812 5811
5777 5779 5779 5783 5782 5783 5784 5784 5785 5787 5789 5790 5792 5793 5794 5795 5795 5796 5796 5796 5797 5797 5798 5798 5799 5799 5800 5801 5802 5803 5803 5803 5803 5804 5804 5804 5804 5804 5806 5806 5807 5807 5806 5805
5771 5771 5773 5775 5776 5776 5776 5777 5779 5780 5782 5783 5785 5786 5787 5787 5788 5789 5790 5790 5790 5790 5790 5791 5791 5792 5793 5794 5795 5795 5796 5796 5797 5797 5797 5797 5797 5797 5799 5800 5800 5800 5799 5799
5764 5765 5766 5769 5769 5769 5771 5771 5772 5773 5775 5777 5778 5780 5781 5781 5781 5782 5782 5783 5783 5783 5783 5784 5784 5785 5786 5787 5788 5788 5789 5789 5790 5791 5791 5791 5791 5791 5791 5792 5792 5792 5792 5792
5758 5758 5759 5762 5762 5763 5765 5766 5766 5767 5768 5770 5772 5773 5774 5774 5775 5775 5775 5776 5776 5777 5777 5777 5777 5778 5779 5780 5780 5781 5782 5782 5783 5783 5784 5784 5784 5783 5784 5785 5784 5784 5784 5784
5752 5753 5756 5755 5756 5756 5757 5758 5759 5760 5762 5764 5765 5766 5766 5767 5767 5767 5767 5769 5770 5769 5769 5769 5770 5770 5771 5772 5773 5774 5774 5775 5775 5776 5776 5776 5776 5776 5777 5777 5777 5777 5776 5776
5747 5749 5749 5748 5749 5749 5750 5751 5753 5754 5755 5757 5758 5759 5759 5760 5760 5760 5760 5761 5762 5762 5762 5762 5761 5762 5763 5764 5765 5766 5766 5767 5767 5768 5768 5768 5768 5769 5769 5769 5769 5769 5769 5769
5741 5741 5742 5742 5742 5743 5744 5745 5746 5748 5749 5750 5751 5752 5752 5752 5753 5753 5754 5754 5754 5755 5755 5754 5754 5755 5755 5756 5756 5757 5757 5758 5759 5760 5760 5760 5760 5760 5761 5761 5761 5761 5761 5761
5735 5735 5736 5736 5735 5736 5738 5738 5739 5741 5742 5743 5744 5744 5745 5745 5746 5746 5746 5747 5746 5747 5747 5747 5746 5747 5747 5747 5747 5748 5748 5750 5750 5751 5752 5752 5752 5752 5752 5753 5753 5753 5753 5752
5729 5730 5730 5730 5729 5730 5731 5732 5733 5734 5735 5736 5736 5737 5737 5737 5738 5738 5738 5739 5739 5739 5739 5738 5738 5738 5738 5739 5739 5739 5740 5741 5741 5742 5743 5743 5744 5744 5744 5745 5745 5745 5745 5744
5723 5723 5723 5724 5724 5724 5725 5725 5726 5727 5727 5728 5728 5729 5729 5729 5730 5730 5730 5730 5731 5730 5730 5730 5730 5730 5730 5730 5730 5731 5732 5732 5733 5733 5734 5735 5735 5736 5736 5736 5736 5736 5736 5735
5717 5717 5717 5717 5718 5718 5718 5719 5719 5720 5720 5720 5721 5721 5721 5722 5722 5722 5722 5723 5723 5722 5722 5722 5722 5722 5722 5722 5722 5723 5723 5724 5724 5725 5726 5726 5727 5727 5727 5727 5727 5727 5727 5726
5711 5711 5711 5711 5712 5712 5712 5712 5713 5713 5713 5714 5714 5714 5714 5714 5715 5715 5715 5715 5715 5715 5715 5715 5715 5715 5714 5714 5715 5715 5715 5716 5716 5717 5717 5717 5717 5717 5718 5718 5718 5718 5717 5717
5706 5705 5705 5705 5705 5706 5706 5706 5706 5707 5707 5707 5707 5707 5706 5707 5707 5707 5707 5707 5707 5707 5707 5707 5707 5707 5707 5707 5707 5707 5707 5708 5708 5708 5708 5708 5708 5708 5708 5708 5708 5708 5708 5707
5700 5699 5699 5699 5699 5700 5700 5700 5700 5700 5700 5701 5701 5700 5700 5699 5700 5700 5700 5700 5700 5700 5700 5699 5699 5699 5699 5699 5700 5700 5700 5700 5700 5700 5700 5700 5699 5699 5699 5699 5698 5698 5698 5697
5694 5694 5693 5693 5693 5693 5693 5694 5694 5694 5695 5695 5694 5694 5694 5693 5693 5694 5694 5694 5693 5693 5693 5692 5692 5692 5692 5692 5692 5692 5692 5692 5692 5692 5692 5691 5691 5690 5690 5689 5689 5688 5688 5688
5689 5689 5688 5688 5688 5687 5687 5688 5688 5688 5688 5688 5688 5688 5687 5687 5687 5687 5687 5687 5686 5686 5686 5686 5685 5685 5685 5684 5684 5684 5684 5684 5684 5684 5684 5683 5683 5682 5681 5681 5680 5680 5679 5679
5683 5683 5683 5682 5682 5682 5681 5681 5681 5681 5681 5681 5681 5681 5681 5681 5680 5680 5680 5680 5679 5679 5679 5679 5678 5678 5678 5677 5677 5677 5676 5676 5676 5676 5675 5675 5674 5674 5673 5673 5672 5671 5670 5670
5678 5678 5677 5677 5676 5675 5675 5675 5674 5674 5674 5673 5674 5674 5674 5674 5674 5674 5673 5673 5672 5672 5672 5671 5671 5671 5670 5669 5669 5669 5669 5669 5668 5668 5667 5667 5666 5665 5665 5664 5663 5662 5661 5660
5673 5673 5672 5671 5671 5670 5669 5669 5668 5668 5668 5667 5667 5667 5668 5667 5667 5667 5666 5666 5665 5665 5664 5664 5663 5663 5662 5662 5661 5661 5661 5660 5660 5659 5659 5658 5658 5657 5657 5656 5655 5654 5653 5652
5668 5667 5667 5667 5666 5665 5664 5664 5663 5663 5662 5662 5661 5661 5661 5661 5660 5660 5659 5659 5658 5657 5657 5656 5656 5655 5654 5654 5653 5653 5653 5653 5653 5652 5651 5650 5650 5649 5649 5648 5647 5646 5644 5643
5663 5663 5662 5662 5661 5661 5660 5659 5659 5658 5657 5656 5656 5655 5655 5654 5654 5653 5652 5651 5651 5650 5649 5648 5648 5647 5647 5646 5646 5646 5646 5646 5645 5645 5644 5643 5642 5642 5641 5640 5639 5637 5636 5635
5659 5658 5658 5658 5657 5656 5655 5655 5654 5653 5652 5652 5651 5650 5649 5648 5648 5647 5646 5645 5644 5643 5642 5641 5640 5640 5639 5639 5639 5639 5638 5638 5638 5637 5636 5636 5635 5634 5633 5632 5630 5629 5628 5627
5654 5654 5654 5653 5653 5652 5651 5650 5649 5649 5648 5647 5646 5646 5645 5644 5643 5641 5640 5639 5638 5637 5636 5634 5633 5632 5631 5631 5631 5631 5631 5631 5630 5630 5629 5628 5627 5626 5625 5624 5623 5621 5620 5619
5650 5650 5649 5649 5648 5647 5647 5646 5645 5644 5643 5643 5642 5641 5640 5639 5638 5636 5635 5634 5632 5631 5630 5628 5627 5625 5625 5625 5625 5625 5625 5624 5624 5623 5623 5622 5621 5620 5618 5617 5616 5614 5613 5612